PICSAT (43132 NORAD) Tracking and Keplerian Element Data

This shows tracking and keplerian element data for the satellite.

Feedback or suggestion? Click here.




ElementValue
Catalog43132
NamePICSAT
Epoch Orbit15390
Epoch Day293.16769278
Epoch Year2020
RAAN3.6987
Inclination97.4365
Eccentricity0.0008932
Argument of Perigee348.6081
Mean Anonmoly11.4953
Mean Motion15.24725419
Decay Rate1.539E-05
L11 43132U 18004X 20293.16769278 .00001539 00000-0 65081-4 0 9990
L22 43132 97.4365 3.6987 0008932 348.6081 11.4953 15.24725419153905

Live tracking and technical data element details for PICSAT (NORAD 43132). PICSAT can be tracked NOW for your location showing map with azimuth and elevation plus other details from your city location.

Track the satellite on the map from your city or location and see movement details for azimuth, elevation, latitude, longitude, range, height, and movement on the map or in text.







IsCatalogInMostPopularTable: catalog: 43132, numindb: 630
Update: records affected: 1



GetName: 43132 PICSAT

Hit Count: updated at: Tue, 20 Oct 2020 16:34:56 GMT